BREEZE-M DEB (TANK), 40386

Orbit data source: Space-Track

BREEZE-M DEB (TANK), 40386 is space debris in HEO originally from a launch on Sun, 01 Feb 2015 UTC launched from the Tyuratam Missile And Space Complex (TTMTR). Debris objects in space refer to the collection of defunct objects orbiting the Earth. Examples of debris include non-operational satellites, rocket bodies, and fragments generated from explosions, collisions, or faulty payload assembly.

Loading next visibility...
Identifier
40386, 2015-005C
Orbit
HEO
Last TLE update
13 hours ago
Origin
Manufacturer
Khrunichev
Mission
Spacecraft
Bus & Motor
BRIZ TANK, Unknown motor
Mass
~1,000 kg wet, 1,000 kg dry
Launch date (UTC)
2015-02-01 (10 years ago)
Launch vehicle
Unknown
Launch site
Tyuratam Missile And Space Complex (TTMTR)
Object type
Payload
Rocket body
Debris
Shape & HBR
Torus, 4 m
Radar Cross Section
8.218 m², Large (>1 m²)

Expand to show TLE details & history

TLE from 13 hours ago
0 BREEZE-M DEB (TANK)
1 40386U 15005C   25183.33544649  .00000301  00000-0  25078-3 0  9998
2 40386  50.7511 315.3635 5109905 303.1454  17.7828  5.33026545197077
Epoch: 2025-07-02T08:03Z
TLE epoch observation values (Epoch: 2025-07-02T08:03:02.576Z)
Latitude
0.00008°
Longitude
-86.02868°
Altitude
1,617.866 km
Speed
8.422 km/s
True Right ascension
21h 01m 24s
True Declination
0° 00' 00"
Sunlit
Object was in full shadow at epoch
Visualization orbit readout
Latitude
-48.95211°
Longitude
162.46967°
Altitude
1,230.423 km
Speed
8.726 km/s
Apparent Right ascension
17h 11m 03s
Apparent Declination
-59° 43' 48"
Sunlit
Object is in daylight
Visualization observer readout
Local Sidereal Time
08:53:39
Azimuth
139.069° SSE
Elevation
-50.563°
Doppler factor
1
Orbital elements
Apogee altitude
14,539.554 km
Perigee altitude
391.561 km
Semi-major axis
13,843.694 km
Eccentricity
0.51099
Inclination
50.7511°
RAAN
315.3635°
Arg. of periapsis
303.1454°
True anomaly
Unknown
Mean anomaly
17.7828°
Eccentric anomaly
Unknown
Mean motion
1.33249 °/min
Orbital period
270.17 mins
BSTAR
0.00025078
Loading maneuver chart data...
Loading SW <> Apogee altitude chart data...
Loading historical data...
Loading historical data...
Loading historical data...
Loading historical data...
Loading historical data...
Loading historical data...
Loading historical data...
Other satellites on launch #5 in the year 2015 (2015-02-01 UTC)

BREEZE-M DEB (TANK) Visibility forecast

Observer location: undefined°, undefined°

Span
Click to sort rows by Start time (UTC) header in descending order
Start Az.
Max El. time (UTC)
Max El. Az.
Max El.
End time (UTC)
End Az.
85 mins2025-07-02 23:06:30.335Z309.438° NW2025-07-02 23:49:30.335Z291.942° WNW14.767°2025-07-03 00:31:30.335Z270.6° WNW
129 mins2025-07-03 11:09:30.335Z216.291° SW2025-07-03 11:25:30.335Z134.893° SE44.606°2025-07-03 13:18:30.335Z64.795° ENE
188 mins2025-07-03 15:57:30.335Z289.003° WNW2025-07-03 17:20:30.335Z41.951° NE44.709°2025-07-03 19:05:30.335Z136.347° SSE
|